Weather in Funadhoo

Maldives     6°09′00″N   73°17′25″E
temp.,
°C
wind,
m/s
gust,
m/s
humid.,
%
clouds,
%
prec.,
mm/h
press.,
hPa
HPBL,
m
10 august, wed
wed1023:00+27wnw6108364 0.1 1009823
02:00+27w6882100 0.8 1007718
05:00+27w468199 1.0 1008700
08:00+27w4682100 0.0 1009598
11:00+27wnw5681100 0.1 1009681
14:00+27w4482100 0.1 1006564
17:00+27w458248 0.2 1007480
20:00+27wnw4684100 0.2 1008518
11 august, thu
thu1123:00+27wnw5885100 0.2 1009765
02:00+27wnw688219 0.1 1007765
05:00+27w4682100 0.1 1008684
08:00+27w4683100 0.0 1009686
11:00+28wsw4581100 0.0 1010651
14:00+27w3481100 0.1 1008571
17:00+28wnw34775 0.3 1008615
20:00+27w34815 0.8 1009358
12 august, fri
fri1223:00+27wsw33815 0.9 1010411
02:00+27wsw348158 0.3 1009415
05:00+27wsw44815 1.3 1009365
08:00+27wsw5579100 1.3 1010450
11:00+27w447815 1.4 1010550
14:00+27w457816 0.3 1008607
17:00+27w347894 0.4 1008652
20:00+27wnw3482100 0.0 1010654
13 august, sat
sat1323:00+27wnw3382100 0.6 1010415
02:00+27wnw4482100 0.4 1009520
05:00+27w4584100 1.4 1009402
08:00+27w4482100 1.5 1010377
11:00+27w4479100 2.4 1010436
14:00+27w447665 0.0 1008619
17:00+28w44765 0.0 1008712
20:00+27w337950 0.1 1010598
14 august, sun
sun1423:00+27nw3379100 0.5 1011490
02:00+27nw458157 0.0 1008598
05:00+27wnw448018 0.0 1008669
08:00+27wnw3379100 0.1 1011577
11:00+27wnw237881 0.1 1011600
14:00+27wnw3377100 0.0 1009663
17:00+28nw3476100 0.0 1009717
20:00+27nw3479100 0.0 1010638